[[{"header":{"parameterUnit":"m.s-1","parameterCategory":1,"la1":30.2991,"la2":30.254,"lo1":-89.0895,"lo2":-89.0444,"dy":0.0017,"dx":0.0017,"nx":28,"ny":28,"refTime":"2025-03-20T09:00:00:Z","depth":0,"parameterNumber":2,"parameterNumberName":"U-component_of_WINDS"},"data":[0,0,0,0,0,0,0,0,0,0,0,0,0,0,0,0,0,0,0,0,0,0,0,0,0,0,0,0,0,0,0,0,0,0,0,0,0,0,0,0,0,0,0,0,0,0,0,0,0,0,0,0,0,0,0,0,0,0,6.4248,6.4249,0,6.4363,6.4364,6.4365,6.4333,6.4331,6.4328,6.4326,6.4441,6.4447,6.4452,0,0,0,0,0,0,0,0,0,0,0,0,0,6.4001,6.4006,6.4248,6.4249,6.4251,6.4363,6.4364,6.4366,6.4333,6.4331,6.4328,6.4325,6.444,6.4446,6.4452,0,0,0,0,0,0,0,0,0,0,0,0,0,6.4111,6.4007,6.4248,6.4248,6.425,6.4362,6.4364,6.4366,6.4334,6.4331,6.4327,6.4324,6.4438,6.4445,6.4453,6.4572,0,0,6.4477,6.4481,0,0,0,0,0,0,0,0,6.4105,6.412,6.4247,6.4249,6.425,6.433,6.4319,6.4435,6.4335,6.4302,6.4326,6.4322,6.4407,6.4417,6.4446,6.4577,6.4582,6.4478,6.4483,6.4486,6.4488,0,0,0,0,0,0,0,6.4097,6.4115,6.4293,6.4249,6.4251,6.4243,6.4255,6.4341,6.4373,6.4305,6.4302,6.4317,6.4407,6.4439,6.4449,6.4584,6.4478,6.4485,6.4489,6.4492,6.482,6.4824,0,0,0,0,0,0,6.4089,6.4109,6.429,6.4297,6.4168,6.425,6.4263,6.4308,6.4372,6.4378,6.4319,6.4315,6.4427,6.444,6.4453,6.4597,6.4486,6.4493,6.4498,6.4816,6.4821,6.4825,0,0,0,0,0,0,6.4084,6.4105,6.4285,6.4203,6.4225,6.4258,6.4308,6.4312,6.4343,6.4383,6.4388,6.4346,6.4425,6.4442,6.4543,6.4601,6.4497,6.4504,6.4811,6.4817,6.4823,6.4886,0,0,0,0,0,0,6.4077,6.4104,6.4149,6.4204,6.4229,6.4374,6.4312,6.4317,6.4357,6.4352,6.4409,6.4415,6.4423,6.4532,6.4551,6.461,6.451,6.4806,6.4814,6.4821,6.4879,6.4894,6.4906,0,0,0,0,0,6.4068,6.4161,6.4151,6.4173,6.4287,6.4377,6.4391,6.44,6.4362,6.4408,6.4434,6.4413,6.4592,6.4542,6.4564,6.4626,6.4803,6.4812,6.4821,6.4873,6.4891,6.4906,0,0,0,0,0,0,6.411,6.4168,6.4158,6.4271,6.432,6.4371,6.4429,6.4418,6.4477,6.4469,6.4477,6.449,6.4594,6.462,6.4564,6.4745,6.4692,6.4705,6.4724,6.4741,6.4754,6.4746,6.4517,0,0,0,0,0,6.4133,6.4202,6.4248,6.4344,6.4369,6.4395,6.4435,6.4437,6.4487,6.4507,6.454,6.4589,6.4656,6.47,6.4764,6.4883,6.4896,6.4937,6.495,6.4961,6.4972,6.5039,6.5059,6.4855,6.4855,6.4854,0,0,6.418,6.422,6.4263,6.4354,6.4391,6.4463,6.4412,6.4489,6.4543,6.4518,6.4617,6.4643,6.4698,6.481,6.486,6.4835,6.5032,6.4972,6.4981,6.4986,6.5051,6.507,6.5087,6.4861,6.486,6.4859,0,0,6.4302,6.4339,6.4424,6.4464,6.4522,6.454,6.456,6.4615,6.4632,6.4731,6.4715,6.4778,6.4893,6.4934,6.497,6.5112,6.5096,6.5132,6.5202,6.5268,6.5284,6.5298,6.535,6.5368,6.5144,6.5144,6.5144,0,6.4353,6.446,6.4469,6.4548,6.4589,6.4573,6.4659,6.4697,6.4773,6.4802,6.4772,6.4919,6.4954,6.5076,6.5111,6.514,6.5165,6.5125,6.5281,6.5295,6.5309,6.5358,6.5377,6.5148,6.5148,6.5147,6.5147,0,6.452,6.4595,6.4657,6.4733,6.4781,6.4863,6.4885,6.4933,6.4932,6.4953,6.5055,6.5098,6.5171,6.5201,6.5199,6.5323,6.5306,6.5279,6.5225,6.5332,6.5379,6.5398,6.5154,6.5153,6.5151,6.515,0,0,6.467,6.4752,6.4775,6.481,6.4875,6.4933,6.5016,6.5089,6.513,6.5184,6.5254,6.5353,6.533,6.5371,6.5374,6.5432,6.5543,6.5398,6.5399,6.5424,6.5684,6.5704,6.5726,6.5534,6.5537,6.554,6.568,0,6.4799,6.4945,6.4957,6.5088,6.5158,6.5145,6.5218,6.5266,6.5288,6.5351,6.5375,6.5446,6.5409,6.5434,6.549,6.5518,6.5596,6.5508,6.5599,6.5602,6.5586,6.575,6.5771,6.59,6.5698,6.5701,6.5703,0,6.4968,6.5029,6.5168,6.5226,6.5255,6.532,6.5389,6.545,6.5505,6.5517,6.5564,6.5561,6.5647,6.5591,6.571,6.5651,6.5689,6.5708,6.5714,6.5722,6.5659,6.5763,6.5941,6.5961,6.5731,6.5729,6.5727,0,6.5065,6.5181,6.528,6.5311,6.538,6.5426,6.5457,6.5509,6.5553,6.5613,6.5642,6.5712,6.575,6.5804,6.582,6.5778,6.594,6.5884,6.5953,6.5952,6.5986,6.5984,6.6173,6.6011,6.6011,6.6011,6.601,0,6.5207,6.5293,6.5325,6.5386,6.5482,6.5495,6.559,6.5619,6.5665,6.5732,6.5724,6.5787,6.5805,6.5871,6.5884,6.5982,6.5999,6.6011,6.6014,6.6012,6.6011,6.6037,6.6028,6.6016,6.6015,6.6014,6.6013,0,6.5331,6.5356,6.5463,6.5521,6.5537,6.5606,6.5656,6.5715,6.5737,6.5821,6.5842,6.5877,6.5955,6.5977,6.6069,6.6078,6.6193,6.6187,6.6175,6.6175,6.6242,6.6236,6.6455,6.6485,6.6303,6.6305,6.6306,0,6.542,6.5486,6.5552,6.5597,6.563,6.5702,6.5747,6.5764,6.5811,6.5881,6.5932,6.6009,6.6071,6.6196,6.623,6.6301,6.6297,6.6369,6.6308,6.6305,6.6299,6.6295,6.6303,6.6381,6.6383,6.6384,6.6385,0,6.5576,6.5586,6.5652,6.5724,6.5779,6.5836,6.5891,6.5928,6.5952,6.6007,6.6087,6.6136,6.6232,6.6309,6.6382,6.6414,6.6405,6.6405,6.6425,6.6423,6.6414,6.6421,6.6207,6.6399,6.6398,6.6397,6.6396,6.6396,6.5686,6.5745,6.5801,6.5876,6.592,6.5972,6.6031,6.6062,6.6129,6.6209,6.6215,6.6302,6.6357,6.6455,6.6491,6.656,6.6538,6.6567,6.6574,6.6581,6.6587,6.6403,6.6573,6.6573,6.6572,6.6572,6.6572,0,6.5842,6.5879,6.5948,6.6025,6.6085,6.6072,6.6133,6.6184,6.6261,6.6314,6.6376,6.6469,6.6545,6.6586,6.6661,6.6708,6.6706,6.6728,6.6724,6.6732,6.6601,6.6577,6.6728,6.6728,6.6728,6.6728,6.6728,6.6728,6.5931,6.603,6.6047,6.6169,6.6205,6.6291,6.6327,6.6376,6.6418,6.6523,6.6586,6.6613,6.6661,6.6741,6.681,6.682,6.6848,6.6873,6.688,6.6757,6.6741,6.6726,6.6703,6.6878,6.6879,6.7006,6.7007,6.7008]},{"header":{"parameterUnit":"m.s-1","parameterCategory":1,"la1":30.2991,"la2":30.254,"lo1":-89.0895,"lo2":-89.0444,"dy":0.0017,"dx":0.0017,"nx":28,"ny":28,"refTime":"2025-03-20T09:00:00:Z","depth":0,"parameterNumber":3,"parameterNumberName":"V-component_of_WINDS"},"data":[0,0,0,0,0,0,0,0,0,0,0,0,0,0,0,0,0,0,0,0,0,0,0,0,0,0,0,0,0,0,0,0,0,0,0,0,0,0,0,0,0,0,0,0,0,0,0,0,0,0,0,0,0,0,0,0,0,0,-7.1472,-7.1474,0,-7.1597,-7.1598,-7.16,-7.1577,-7.1575,-7.1573,-7.1571,-7.1694,-7.1699,-7.1704,0,0,0,0,0,0,0,0,0,0,0,0,0,-7.1212,-7.1217,-7.1472,-7.1474,-7.1475,-7.1597,-7.1598,-7.16,-7.1578,-7.1575,-7.1572,-7.157,-7.1692,-7.1698,-7.1705,0,0,0,0,0,0,0,0,0,0,0,0,0,-7.1329,-7.1218,-7.1472,-7.1479,-7.1481,-7.1596,-7.1598,-7.1601,-7.1578,-7.1575,-7.1571,-7.1568,-7.169,-7.1698,-7.1706,-7.1821,0,0,-7.173,-7.1734,0,0,0,0,0,0,0,0,-7.1323,-7.1339,-7.1476,-7.1478,-7.1481,-7.1568,-7.1552,-7.1674,-7.1579,-7.1541,-7.1571,-7.1567,-7.1654,-7.1665,-7.1696,-7.1827,-7.1832,-7.1731,-7.1736,-7.1739,-7.1741,0,0,0,0,0,0,0,-7.1315,-7.1333,-7.1521,-7.1478,-7.1481,-7.1475,-7.1488,-7.1575,-7.1614,-7.1544,-7.1543,-7.1558,-7.1655,-7.1688,-7.1698,-7.1834,-7.1731,-7.1738,-7.1743,-7.1746,-7.2068,-7.2072,0,0,0,0,0,0,-7.1305,-7.1327,-7.1517,-7.1525,-7.1392,-7.1482,-7.1497,-7.1543,-7.1614,-7.1621,-7.1561,-7.1556,-7.1676,-7.1689,-7.1703,-7.1844,-7.1739,-7.1747,-7.1751,-7.2064,-7.2069,-7.2073,0,0,0,0,0,0,-7.1299,-7.1322,-7.1512,-7.1426,-7.145,-7.149,-7.1543,-7.1548,-7.1581,-7.1626,-7.1633,-7.1587,-7.1674,-7.1691,-7.1793,-7.1847,-7.175,-7.1757,-7.206,-7.2066,-7.2071,-7.2126,0,0,0,0,0,0,-7.1292,-7.132,-7.1365,-7.1427,-7.1454,-7.1601,-7.1546,-7.1552,-7.1595,-7.1591,-7.1653,-7.166,-7.1673,-7.1781,-7.1801,-7.1857,-7.1764,-7.2055,-7.2062,-7.2069,-7.2119,-7.2132,-7.2144,0,0,0,0,0,-7.1283,-7.1374,-7.1367,-7.139,-7.1511,-7.1604,-7.162,-7.1634,-7.1599,-7.1645,-7.1674,-7.1658,-7.1839,-7.1791,-7.1813,-7.1873,-7.2052,-7.206,-7.2069,-7.2114,-7.213,-7.2144,0,0,0,0,0,0,-7.1315,-7.1382,-7.1375,-7.1489,-7.1542,-7.16,-7.1657,-7.165,-7.1712,-7.1705,-7.1718,-7.1733,-7.1836,-7.1864,-7.1811,-7.1989,-7.194,-7.1953,-7.1967,-7.1983,-7.1995,-7.1986,-7.177,0,0,0,0,0,-7.1336,-7.1407,-7.1461,-7.1556,-7.1583,-7.1616,-7.1657,-7.1664,-7.1718,-7.1739,-7.1776,-7.1828,-7.1897,-7.1941,-7.2006,-7.2123,-7.2137,-7.2175,-7.2188,-7.2198,-7.2209,-7.2274,-7.2292,-7.2101,-7.2101,-7.2101,0,0,-7.1378,-7.1424,-7.1467,-7.1564,-7.1605,-7.1678,-7.1635,-7.1713,-7.1767,-7.175,-7.1849,-7.1878,-7.1937,-7.2047,-7.2097,-7.2074,-7.2265,-7.2209,-7.2216,-7.2222,-7.2285,-7.2303,-7.2319,-7.2107,-7.2106,-7.2105,0,0,-7.1493,-7.1535,-7.162,-7.1663,-7.1727,-7.1749,-7.1769,-7.183,-7.185,-7.1949,-7.1939,-7.2003,-7.212,-7.2163,-7.2201,-7.2336,-7.2323,-7.2356,-7.2421,-7.2485,-7.25,-7.2513,-7.2562,-7.2579,-7.2367,-7.2368,-7.2368,0,-7.1538,-7.1649,-7.1664,-7.1745,-7.1788,-7.1779,-7.1865,-7.1906,-7.1987,-7.2017,-7.199,-7.2139,-7.2178,-7.2299,-7.2332,-7.2362,-7.2386,-7.2349,-7.2497,-7.251,-7.2523,-7.257,-7.2588,-7.2371,-7.2371,-7.2371,-7.237,0,-7.1701,-7.1778,-7.1839,-7.192,-7.197,-7.2053,-7.2081,-7.213,-7.2133,-7.2157,-7.2259,-7.2306,-7.2382,-7.2411,-7.2414,-7.2533,-7.2517,-7.2493,-7.2444,-7.2545,-7.2589,-7.2607,-7.2377,-7.2375,-7.2374,-7.2373,0,0,-7.1838,-7.1929,-7.1951,-7.1989,-7.206,-7.212,-7.2202,-7.2279,-7.2321,-7.2377,-7.2447,-7.2549,-7.2528,-7.2571,-7.2578,-7.2634,-7.2739,-7.2604,-7.2605,-7.2628,-7.2875,-7.2892,-7.2913,-7.2732,-7.2736,-7.2738,-7.287,0,-7.196,-7.2108,-7.2126,-7.2257,-7.2329,-7.2323,-7.2395,-7.2446,-7.2472,-7.2536,-7.2564,-7.2636,-7.2603,-7.2629,-7.2684,-7.2715,-7.2789,-7.2706,-7.2797,-7.28,-7.2782,-7.2936,-7.2954,-7.3076,-7.2888,-7.2891,-7.2893,0,-7.2122,-7.2187,-7.2326,-7.239,-7.242,-7.2485,-7.2558,-7.2619,-7.2677,-7.2692,-7.2741,-7.2742,-7.2828,-7.2776,-7.2894,-7.2837,-7.2876,-7.2897,-7.2902,-7.2911,-7.2852,-7.2949,-7.3115,-7.3134,-7.292,-7.2918,-7.2916,0,-7.2209,-7.2331,-7.243,-7.2463,-7.2539,-7.2585,-7.2619,-7.2674,-7.2719,-7.2782,-7.2812,-7.2883,-7.2922,-7.2977,-7.2998,-7.2958,-7.3115,-7.3065,-7.313,-7.3129,-7.3162,-7.316,-7.3337,-7.3187,-7.3187,-7.3187,-7.3186,0,-7.2344,-7.243,-7.2471,-7.2532,-7.2628,-7.2648,-7.2742,-7.2773,-7.2823,-7.289,-7.2888,-7.2951,-7.2974,-7.304,-7.3057,-7.3153,-7.317,-7.3184,-7.3187,-7.3185,-7.3183,-7.3209,-7.3201,-7.3191,-7.319,-7.3189,-7.3189,0,-7.2457,-7.2488,-7.2596,-7.2661,-7.2679,-7.2747,-7.2802,-7.2861,-7.2887,-7.2972,-7.2993,-7.3033,-7.3111,-7.3138,-7.3232,-7.3243,-7.3355,-7.335,-7.3336,-7.3336,-7.34,-7.3394,-7.3601,-7.3629,-7.346,-7.3462,-7.3463,0,-7.2541,-7.2607,-7.268,-7.2726,-7.2762,-7.2835,-7.2882,-7.2905,-7.2954,-7.3027,-7.3077,-7.3155,-7.3219,-7.3345,-7.3382,-7.3454,-7.3452,-7.3519,-7.3462,-7.3458,-7.3453,-7.3449,-7.3456,-7.353,-7.3531,-7.3533,-7.3534,0,-7.2687,-7.27,-7.2769,-7.2844,-7.2901,-7.2961,-7.3019,-7.3056,-7.3086,-7.3142,-7.3223,-7.3273,-7.3371,-7.3449,-7.3523,-7.3557,-7.3551,-7.3552,-7.3571,-7.3568,-7.3557,-7.3565,-7.3365,-7.3547,-7.3546,-7.3545,-7.3544,-7.3543,-7.2789,-7.2848,-7.2909,-7.2987,-7.3033,-7.3088,-7.3147,-7.3182,-7.325,-7.3333,-7.3342,-7.343,-7.3488,-7.3588,-7.3625,-7.3694,-7.3675,-7.3702,-7.3709,-7.3715,-7.3721,-7.3547,-7.3707,-7.3707,-7.3707,-7.3706,-7.3706,0,-7.2935,-7.2975,-7.3046,-7.3129,-7.319,-7.3181,-7.3245,-7.3296,-7.3374,-7.343,-7.3494,-7.3588,-7.3664,-7.3709,-7.3785,-7.3831,-7.3831,-7.385,-7.3847,-7.3855,-7.3733,-7.3709,-7.385,-7.385,-7.385,-7.385,-7.385,-7.385,-7.3019,-7.3119,-7.314,-7.3264,-7.3302,-7.339,-7.3427,-7.3478,-7.3523,-7.3629,-7.3693,-7.3722,-7.3773,-7.3854,-7.3923,-7.3934,-7.3962,-7.3985,-7.3994,-7.3878,-7.3864,-7.3849,-7.3827,-7.399,-7.3991,-7.411,-7.4111,-7.4112]}]]